Location: Cortos
(40.7190°N, 4.5893°W)
Time: 04:34:49
(UTC+00:00)

COSMOS 2455 - Pass Details

Date: 05 July 2020
Orbit: 898 x 911 km, 67.1° (Epoch: 11 August)

Event Time Altitude Azimuth Distance (km) Brightness Sun altitude
Rises 23:27:02 0° 338° (NNW) 3,549 7.3 -25.3°
Reaches altitude 10° 23:29:58 10° 350° (N) 2,605 6.3 -25.4°
Maximum altitude 23:35:04 28° 48° (NE) 1,659 4.4 -25.6°
Enters shadow 23:38:24 17° 93° (E) 2,118 4.6 -25.8°
